K5RG-3 Weather Reports


time (UTC)temp
F
wind
direction
speed
knots
gust
knots
rain 1hr
in
rain 24hr
in
rain mn
in
humidity
%
barometer
mb
20260509014533 75 76 0.9 7.0 0.00 0.00 0.00 93 1007.1
20260509013035 75 94 2.6 7.0 0.00 0.00 0.00 93 1007.3
20260509011525 75 88 2.6 8.7 0.00 0.00 0.00 93 1007.3
20260509010020 75 136 0.9 6.1 0.00 0.00 0.00 92 1007.1
20260509004519 75 89 1.7 9.6 0.00 0.00 0.00 92 1007.2
20260509003018 74 102 2.6 7.8 0.00 0.00 0.00 92 1007.5
20260509001517 74 129 5.2 11.3 0.00 0.00 0.00 92 1006.7
20260509000033 75 101 3.5 10.4 0.00 0.00 0.00 91 1007.2
20260508234515 75 96 2.6 7.0 0.00 0.00 0.00 91 1007.7
20260508233015 75 70 3.5 7.8 0.00 0.00 0.00 91 1007.6
20260508231514 75 84 1.7 6.1 0.00 0.00 0.00 90 1007.5
20260508230011 75 77 2.6 7.8 0.00 0.00 0.00 90 1007.3
20260508224522 75 108 5.2 9.6 0.00 0.00 0.00 89 1007.1
20260508223005 75 81 0.9 6.1 0.00 0.00 0.00 89 1007.2
20260508221502 75 102 0.0 6.1 0.00 0.00 0.00 89 1007.5
20260508220058 74 90 1.7 7.0 0.00 0.00 0.00 89 1007.6
20260508214553 74 100 0.9 7.0 0.00 0.00 0.00 89 1007.7
20260508213048 74 95 1.7 6.1 0.00 0.00 0.00 88 1007.8
20260508211549 74 91 0.0 7.0 0.00 0.00 0.00 89 1007.8
20260508210044 73 85 0.9 3.5 0.00 0.00 0.00 89 1008.0
20260508204544 73 104 2.6 7.8 0.00 0.00 0.00 89 1007.8
20260508203041 73 69 4.3 8.7 0.00 0.00 0.00 90 1008.2
20260508201541 73 75 0.9 8.7 0.00 0.00 0.00 90 1008.7
20260508200045 73 84 3.5 8.7 0.00 0.00 0.00 91 1008.7
20260508194536 72 110 1.7 7.0 0.00 0.00 0.00 92 1008.9
20260508193043 71 101 6.1 11.3 0.00 0.00 0.00 93 1008.7
20260508191533 71 55 5.2 10.4 0.00 0.00 0.00 94 1008.7
20260508190031 70 79 5.2 10.4 0.00 0.00 0.00 94 1008.9
20260508184530 69 123 5.2 12.2 0.00 0.00 0.00 94 1009.1
20260508183028 69 75 4.3 8.7 0.00 0.00 0.00 94 1009.5
20260508181525 69 46 2.6 10.4 0.00 0.00 0.00 94 1009.8
20260508180026 69 72 3.5 8.7 0.00 0.00 0.00 94 1009.9
20260508174526 69 84 4.3 10.4 0.00 0.00 0.00 94 1009.9
20260508173026 69 102 5.2 11.3 0.00 0.00 0.00 94 1009.9
20260508171531 68 79 4.3 10.4 0.00 0.00 0.00 93 1009.9
20260508170018 68 82 2.6 8.7 0.00 0.00 0.00 93 1010.4
20260508164522 68 70 2.6 7.8 0.00 0.00 0.00 93 1010.7
20260508163017 68 73 5.2 10.4 0.00 0.00 0.00 92 1010.8
20260508161530 68 78 2.6 6.1 0.00 0.00 0.00 92 1011.0
20260508160019 68 93 5.2 11.3 0.00 0.00 0.00 93 1011.1
20260508154515 68 29 4.3 8.7 0.00 0.00 0.00 93 1011.3
20260508153012 68 84 3.5 7.0 0.00 0.00 0.00 93 1011.2
20260508151511 67 356 4.3 11.3 0.00 0.00 0.00 93 1010.9
20260508150018 67 48 5.2 11.3 0.00 0.00 0.00 93 1010.8
20260508144512 67 50 4.3 9.6 0.00 0.00 0.00 93 1011.0
20260508143016 67 33 1.7 7.0 0.00 0.00 0.00 93 1011.3
20260508141507 68 8 0.9 3.5 0.00 0.00 0.00 93 1011.6
20260508140004 68 56 1.7 6.1 0.00 0.00 0.00 92 1011.1
20260508134502 68 41 0.9 6.1 0.00 0.00 0.00 93 1011.2
20260508133002 68 75 0.0 6.1 0.00 0.00 0.00 93 1011.0
20260508131601 67 67 0.0 6.1 0.00 0.00 0.00 93 1011.3
20260508130057 67 66 3.5 7.8 0.00 0.00 0.00 92 1010.9
20260508124601 68 59 1.7 7.8 0.00 0.00 0.00 92 1011.0
20260508123053 68 25 2.6 8.7 0.00 0.00 0.00 92 1011.2
20260508121551 68 48 3.5 7.8 0.00 0.00 0.00 93 1011.1
20260508120050 68 77 3.5 7.8 0.00 0.00 0.00 93 1010.5
20260508114549 68 62 2.6 7.0 0.00 0.00 0.00 93 1010.5
20260508113117 68 75 2.6 7.8 0.00 0.00 0.00 93 1010.7
20260508111547 69 24 1.7 5.2 0.00 0.00 0.00 93 1011.1
20260508110047 69 62 1.7 6.1 0.00 0.00 0.00 93 1010.8
20260508104554 69 106 1.7 7.0 0.00 0.00 0.00 93 1010.1
20260508103043 69 94 1.7 8.7 0.00 0.00 0.00 92 1010.3
20260508101544 70 68 5.2 8.7 0.00 0.00 0.00 92 1010.6
20260508100040 70 79 6.1 10.4 0.00 0.00 0.00 92 1010.4
20260508094536 71 75 6.1 10.4 0.00 0.00 0.00 91 1010.7
20260508093034 72 61 3.5 7.0 0.00 0.00 0.00 91 1010.6
20260508091533 72 100 3.5 7.0 0.00 0.00 0.00 90 1010.6
20260508090039 73 74 1.7 4.3 0.00 0.00 0.00 90 1010.6
20260508084529 73 96 0.9 3.5 0.00 0.00 0.00 89 1010.5
20260508083035 73 98 0.9 6.1 0.00 0.00 0.00 88 1010.7
20260508081526 73 112 0.0 2.6 0.00 0.00 0.00 87 1010.8
20260508080029 74 135 0.0 6.1 0.00 0.00 0.00 86 1010.6
20260508074526 74 98 0.0 6.1 0.00 0.00 0.00 85 1010.5
20260508073024 74 43 0.9 6.1 0.00 0.00 0.00 85 1010.8
20260508071515 75 107 0.9 5.2 0.00 0.00 0.00 85 1011.1
20260508070010 75 87 0.9 9.6 0.00 0.00 0.00 85 1010.9
20260508064529 75 100 4.3 10.4 0.00 0.00 0.00 85 1010.8
20260508063001 75 77 0.9 8.7 0.00 0.00 0.00 85 1011.0
20260508061602 75 94 1.7 5.2 0.00 0.00 0.00 85 1011.4
20260508060055 75 86 0.9 5.2 0.00 0.00 0.00 84 1011.2
20260508054615 75 113 0.9 6.1 0.00 0.00 0.00 83 1011.1
20260508053045 74 100 0.0 9.6 0.00 0.00 0.00 83 1010.5
20260508051543 75 84 2.6 8.7 0.00 0.00 0.00 82 1010.8
20260508050038 75 116 1.7 9.6 0.00 0.00 0.00 82 1010.7
20260508044535 75 111 1.7 10.4 0.00 0.00 0.00 82 1010.6
20260508043043 75 84 4.3 7.0 0.00 0.00 0.00 82 1011.0
20260508041536 75 124 3.5 8.7 0.00 0.00 0.00 81 1011.5
20260508040041 75 86 3.5 10.4 0.00 0.00 0.00 81 1012.1
20260508034535 75 90 5.2 10.4 0.00 0.00 0.00 81 1012.2
20260508033034 75 67 2.6 7.0 0.00 0.00 0.00 81 1012.1
20260508031532 76 97 4.3 9.6 0.00 0.00 0.00 80 1011.9
20260508030033 76 75 3.5 9.6 0.00 0.00 0.00 79 1011.7
20260508024531 76 90 5.2 8.7 0.00 0.00 0.00 78 1011.7
20260508023031 76 78 3.5 7.8 0.00 0.00 0.00 78 1011.7
20260508021530 76 73 5.2 8.7 0.00 0.00 0.00 78 1011.9
20260508020030 76 79 2.6 9.6 0.00 0.00 0.00 78 1011.4